Time_in_sec,gx,gy,gz
1314365441.71300459,0.14007158,-0.01737569,-0.98998891
1314365441.76450133,0.13999687,-0.01761556,-0.98999524
1314365441.81701279,0.14002757,-0.01729606,-0.98999653
1314365441.86546683,0.13970913,-0.01731520,-0.99004118
1314365441.91372037,0.13967725,-0.01720492,-0.99004760
1314365441.96452856,0.13971729,-0.01730933,-0.99004013
1314365442.01349187,0.13967813,-0.01753405,-0.99004170
1314365442.06467748,0.13941815,-0.01734917,-0.99008161
1314365442.11348867,0.13946089,-0.01749399,-0.99007304
1314365442.16549945,0.13954172,-0.01749824,-0.99006157
1314365442.21314263,0.13977747,-0.01746975,-0.99002882
1314365442.26548600,0.13966866,-0.01772268,-0.99003968
1314365442.31362391,0.13968012,-0.01749253,-0.99004216
1314365442.36513352,0.13972846,-0.01746789,-0.99003577
1314365442.41698861,0.13961477,-0.01739469,-0.99005310
1314365442.46783495,0.13979585,-0.01726795,-0.99002977
1314365442.51346588,0.13950041,-0.01766798,-0.99006438
1314365442.56459808,0.13960312,-0.01738210,-0.99005496
1314365442.61761856,0.13971922,-0.01759927,-0.99003475
1314365442.66312480,0.13975362,-0.01750078,-0.99003164
1314365442.71362138,0.13968731,-0.01760660,-0.99003912
1314365442.76837945,0.13996493,-0.01754351,-0.99000103
1314365442.81347895,0.14004124,-0.01750421,-0.98999094
1314365442.86550188,0.14000360,-0.01757279,-0.98999504
1314365442.91344380,0.13988963,-0.01754631,-0.99001163
1314365442.96452355,0.13980021,-0.01761886,-0.99002297
1314365443.01361990,0.14003750,-0.01761601,-0.98998948
1314365443.06364393,0.14005344,-0.01762011,-0.98998715
1314365443.11415744,0.13975593,-0.01757901,-0.99002993
1314365443.16498518,0.13945429,-0.01758366,-0.99007238
1314365443.21294546,0.13960005,-0.01749486,-0.99005341
1314365443.26459312,0.13950631,-0.01744062,-0.99006758
1314365443.31344867,0.13946137,-0.01744334,-0.99007386
1314365443.36550450,0.13960032,-0.01730261,-0.99005675
1314365443.41310596,0.13966404,-0.01740364,-0.99004599
1314365443.46551704,0.13964361,-0.01752953,-0.99004665
1314365443.51362205,0.13963169,-0.01733017,-0.99005184
1314365443.56448388,0.13948348,-0.01743013,-0.99007098
1314365443.61294055,0.13946655,-0.01731346,-0.99007541
1314365443.66497779,0.13960015,-0.01708763,-0.99006051
1314365443.71360922,0.13977926,-0.01728423,-0.99003182
1314365443.76508880,0.13971555,-0.01710864,-0.99004387
1314365443.81307745,0.13974830,-0.01717653,-0.99003807
1314365443.86546445,0.13981942,-0.01698466,-0.99003134
1314365443.91352725,0.13960317,-0.01697818,-0.99006197
1314365443.96451044,0.13949159,-0.01688899,-0.99007922
1314365444.01347470,0.13929798,-0.01668876,-0.99010987
1314365444.06476378,0.13932251,-0.01652492,-0.99010917
1314365444.11346626,0.13935909,-0.01615463,-0.99011013
1314365444.16547155,0.13931306,-0.01621655,-0.99011560
1314365444.21307278,0.13927744,-0.01619610,-0.99012094
1314365444.26548147,0.13946973,-0.01607082,-0.99009592
1314365444.31760216,0.13956110,-0.01617431,-0.99008136
1314365444.36717129,0.13951693,-0.01596435,-0.99009099
1314365444.41295671,0.13968043,-0.01655235,-0.99005828
1314365444.46501327,0.13970086,-0.01665363,-0.99005370
1314365444.51346326,0.13972612,-0.01635102,-0.99005518
1314365444.56504655,0.13984735,-0.01631414,-0.99003867
1314365444.61661863,0.13980184,-0.01619732,-0.99004702
1314365444.66546893,0.13980680,-0.01640666,-0.99004287
1314365444.71359658,0.13957782,-0.01621150,-0.99007839
1314365444.76467991,0.13943319,-0.01611922,-0.99010028
1314365444.81294227,0.13934940,-0.01628462,-0.99010937
1314365444.86477089,0.13959879,-0.01632052,-0.99007364
1314365444.91347289,0.13938950,-0.01636635,-0.99010237
1314365444.96452856,0.13931300,-0.01626479,-0.99011481
1314365445.01701999,0.13916383,-0.01627856,-0.99013557
1314365445.06505370,0.13905969,-0.01642720,-0.99014774
1314365445.11362624,0.13909582,-0.01637805,-0.99014348
1314365445.16492653,0.13951596,-0.01644082,-0.99008333
1314365445.21353650,0.13953522,-0.01631191,-0.99008275
1314365445.26461673,0.13960062,-0.01639961,-0.99007208
1314365445.31351781,0.13959434,-0.01659395,-0.99006973
1314365445.36459661,0.13938768,-0.01661881,-0.99009842
1314365445.41304541,0.13928736,-0.01656938,-0.99011337
1314365445.45744181,0.13907828,-0.01633601,-0.99014664
1314365445.51369715,0.13891415,-0.01636691,-0.99016917
1314365445.56561899,0.13889510,-0.01639705,-0.99017134
1314365445.61690283,0.13884304,-0.01646028,-0.99017760
1314365445.66452503,0.13899262,-0.01656917,-0.99015479
1314365445.71379948,0.13894496,-0.01655863,-0.99016166
1314365445.75694847,0.13905870,-0.01638759,-0.99014854
1314365445.81366730,0.13884357,-0.01620295,-0.99018176
1314365445.85916352,0.13904278,-0.01646374,-0.99014951
1314365445.91366458,0.13896007,-0.01628234,-0.99016412
1314365445.96560597,0.13909299,-0.01648187,-0.99014216
1314365446.01346326,0.13925386,-0.01661674,-0.99011729
1314365446.06553698,0.13933501,-0.01635244,-0.99011027
1314365446.11346793,0.13923309,-0.01634553,-0.99012472
1314365446.16544271,0.13919411,-0.01631988,-0.99013063
1314365446.21360135,0.13931756,-0.01637897,-0.99011229
1314365446.26548433,0.13936402,-0.01651768,-0.99010345
1314365446.31352615,0.13926369,-0.01630328,-0.99012112
1314365446.36496186,0.13915698,-0.01637257,-0.99013498
1314365446.41349912,0.13910530,-0.01632849,-0.99014297
1314365446.46562481,0.13925460,-0.01615228,-0.99012487
1314365446.51345825,0.13948040,-0.01597615,-0.99009595
1314365446.56561303,0.13940860,-0.01591357,-0.99010707
1314365446.61662912,0.13919145,-0.01614371,-0.99013389
1314365446.65744829,0.13936853,-0.01585249,-0.99011369
1314365446.71762514,0.13938783,-0.01592827,-0.99010975
1314365446.75698495,0.13920121,-0.01598043,-0.99013517
1314365446.81345439,0.13925081,-0.01599067,-0.99012803
1314365446.86562228,0.13945228,-0.01600493,-0.99009944
1314365446.91346192,0.13946149,-0.01588906,-0.99010001
1314365446.95653725,0.13951577,-0.01604276,-0.99008988
1314365447.01351070,0.13957077,-0.01609466,-0.99008129
1314365447.06490731,0.13965998,-0.01591797,-0.99007157
1314365447.11290479,0.13974875,-0.01606311,-0.99005670
1314365447.16454220,0.13983640,-0.01620279,-0.99004204
1314365447.21379638,0.13991629,-0.01629305,-0.99002928
1314365447.26489305,0.13987039,-0.01614442,-0.99003820
1314365447.31357956,0.13982994,-0.01634292,-0.99004065
1314365447.35751820,0.13979317,-0.01646652,-0.99004380
1314365447.40560555,0.13970383,-0.01648316,-0.99005613
1314365447.45777249,0.13947931,-0.01661988,-0.99008550
1314365447.51362848,0.13953683,-0.01650742,-0.99007928
1314365447.55747771,0.13945589,-0.01641847,-0.99009216
1314365447.61349702,0.13924192,-0.01635099,-0.99012339
1314365447.65661740,0.13914712,-0.01619433,-0.99013929
1314365447.71348453,0.13923913,-0.01618402,-0.99012653
1314365447.76467085,0.13931733,-0.01624563,-0.99011452
1314365447.81362486,0.13927193,-0.01629659,-0.99012007
1314365447.86553001,0.13937350,-0.01642074,-0.99010373
1314365447.91663170,0.13941220,-0.01642267,-0.99009825
1314365447.95762181,0.13961745,-0.01646698,-0.99006859
1314365448.01347136,0.13945423,-0.01635429,-0.99009346
1314365448.06459379,0.13960751,-0.01604839,-0.99007686
1314365448.11346769,0.13968464,-0.01593408,-0.99006783
1314365448.16483068,0.13989867,-0.01589234,-0.99003828
1314365448.21350789,0.13976245,-0.01611411,-0.99005394
1314365448.26482773,0.13963422,-0.01567790,-0.99007903
1314365448.31285334,0.13966205,-0.01553395,-0.99007737
1314365448.36459184,0.13966491,-0.01525614,-0.99008129
1314365448.40547681,0.13978921,-0.01561167,-0.99005821
1314365448.46551824,0.13948123,-0.01564565,-0.99010111
1314365448.51346660,0.13951639,-0.01590087,-0.99009209
1314365448.55747032,0.13940223,-0.01610875,-0.99010481
1314365448.61684155,0.13921661,-0.01622062,-0.99012910
1314365448.66546631,0.13916678,-0.01622512,-0.99013603
1314365448.71650267,0.13918256,-0.01619421,-0.99013432
1314365448.75752115,0.13913679,-0.01634029,-0.99013835
1314365448.81348944,0.13914885,-0.01622377,-0.99013857
1314365448.85650921,0.13915019,-0.01613230,-0.99013988
1314365448.90548921,0.13910236,-0.01648848,-0.99014073
1314365448.95754814,0.13950657,-0.01643960,-0.99008467
1314365449.01761985,0.13945376,-0.01644918,-0.99009195
1314365449.06549191,0.13959562,-0.01638672,-0.99007300
1314365449.10477328,0.13956377,-0.01658116,-0.99007425
1314365449.16481781,0.13964796,-0.01667245,-0.99006084
1314365449.21346927,0.13956916,-0.01657896,-0.99007353
1314365449.25662851,0.13938343,-0.01654243,-0.99010030
1314365449.31349874,0.13930176,-0.01627799,-0.99011618
1314365449.36485958,0.13930062,-0.01626648,-0.99011653
1314365449.41362143,0.13938615,-0.01624545,-0.99010484
1314365449.45673966,0.13937556,-0.01597306,-0.99011076
1314365449.50481629,0.13911139,-0.01596173,-0.99014809
1314365449.55762315,0.13897043,-0.01561248,-0.99017345
1314365449.61754036,0.13880383,-0.01546190,-0.99019918
1314365449.65878391,0.13881731,-0.01543215,-0.99019776
1314365449.71347666,0.13878814,-0.01542473,-0.99020196
1314365449.76461792,0.13883143,-0.01516750,-0.99019987
1314365449.81278014,0.13865893,-0.01492636,-0.99022770
1314365449.86961555,0.13900662,-0.01510442,-0.99017626
1314365449.91353321,0.13901495,-0.01516955,-0.99017409
1314365449.96492028,0.13905431,-0.01516531,-0.99016863
1314365450.00551748,0.13891678,-0.01533780,-0.99018528
1314365450.06503701,0.13887250,-0.01526507,-0.99019261
1314365450.10551381,0.13890873,-0.01515884,-0.99018916
1314365450.16523194,0.13904340,-0.01512527,-0.99017077
1314365450.20566988,0.13894410,-0.01482418,-0.99018926
1314365450.25744772,0.13870553,-0.01479155,-0.99022320
1314365450.31510258,0.13863591,-0.01487592,-0.99023169
1314365450.35661936,0.13844841,-0.01458607,-0.99026223
1314365450.42482710,0.13832480,-0.01449932,-0.99028078
1314365450.45686841,0.13810031,-0.01436697,-0.99031404
1314365450.50566721,0.13804924,-0.01457577,-0.99031811
1314365450.55682397,0.13835511,-0.01434455,-0.99027880
1314365450.60866928,0.13831389,-0.01432263,-0.99028487
1314365450.66548252,0.13815795,-0.01407280,-0.99031022
1314365450.71764660,0.13811013,-0.01395554,-0.99031855
1314365450.76560402,0.13821990,-0.01392140,-0.99030372
1314365450.81750822,0.13807676,-0.01384288,-0.99032479
1314365450.85663772,0.13805684,-0.01377236,-0.99032855
1314365450.91744614,0.13834204,-0.01372857,-0.99028935
1314365450.96482921,0.13827372,-0.01352950,-0.99030164
1314365451.00550199,0.13826286,-0.01366653,-0.99030127
1314365451.06548452,0.13823632,-0.01362817,-0.99030550
1314365451.10549068,0.13837635,-0.01370403,-0.99028490
1314365451.15675497,0.13842375,-0.01366823,-0.99027877
1314365451.21678114,0.13827677,-0.01344232,-0.99030240
1314365451.26466632,0.13828207,-0.01362179,-0.99029921
1314365451.30953479,0.13826070,-0.01368401,-0.99030133
1314365451.36453152,0.13830221,-0.01369177,-0.99029543
1314365451.41368032,0.13862588,-0.01371667,-0.99024983
1314365451.45744658,0.13851034,-0.01352256,-0.99026866
1314365451.51365137,0.13840816,-0.01356723,-0.99028234
1314365451.56470323,0.13831650,-0.01339831,-0.99029745
1314365451.61677003,0.13841337,-0.01348693,-0.99028271
1314365451.66566372,0.13839103,-0.01351971,-0.99028538
1314365451.71747851,0.13834390,-0.01348971,-0.99029238
1314365451.75664258,0.13839473,-0.01332226,-0.99028754
1314365451.81366110,0.13845722,-0.01330395,-0.99027905
1314365451.85665751,0.13844179,-0.01325662,-0.99028184
1314365451.91747260,0.13846091,-0.01340785,-0.99027714
1314365451.96565366,0.13837259,-0.01323479,-0.99029181
1314365452.01748919,0.13837695,-0.01290763,-0.99029552
1314365452.05665112,0.13830910,-0.01278754,-0.99030656
1314365452.11746597,0.13803568,-0.01267463,-0.99034615
1314365452.15675020,0.13799043,-0.01303152,-0.99034783
1314365452.21442366,0.13804382,-0.01324007,-0.99033762
1314365452.25747657,0.13793788,-0.01311636,-0.99035403
1314365452.30861950,0.13775979,-0.01319694,-0.99037775
1314365452.35661960,0.13768469,-0.01319394,-0.99038823
1314365452.41391659,0.13778313,-0.01320543,-0.99037439
1314365452.45661879,0.13805505,-0.01303241,-0.99033881
1314365452.51746511,0.13827037,-0.01298231,-0.99030943
1314365452.56452370,0.13836524,-0.01286412,-0.99029772
1314365452.60566139,0.13847705,-0.01272678,-0.99028387
1314365452.66552615,0.13836640,-0.01285571,-0.99029767
1314365452.71762848,0.13846796,-0.01313731,-0.99027978
1314365452.75767207,0.13848403,-0.01292019,-0.99028039
1314365452.81750441,0.13847506,-0.01306430,-0.99027975
1314365452.85765576,0.13832230,-0.01286669,-0.99030369
1314365452.91747785,0.13837524,-0.01280441,-0.99029710
1314365452.96465111,0.13854741,-0.01260538,-0.99027558
1314365453.01667881,0.13843795,-0.01282223,-0.99028810
1314365453.06551099,0.13833593,-0.01284435,-0.99030207
1314365453.11755419,0.13832741,-0.01284464,-0.99030326
1314365453.15773058,0.13849804,-0.01245363,-0.99028440
1314365453.21755672,0.13856097,-0.01235588,-0.99027683
1314365453.25369215,0.13854932,-0.01235882,-0.99027842
1314365453.30548882,0.13865301,-0.01253246,-0.99026172
1314365453.36454391,0.13870831,-0.01254461,-0.99025382
1314365453.41748834,0.13896622,-0.01259509,-0.99021702
1314365453.45747781,0.13923674,-0.01251454,-0.99018004
1314365453.51515961,0.13926022,-0.01258100,-0.99017590
1314365453.55654001,0.13921089,-0.01237205,-0.99018547
1314365453.61755300,0.13944412,-0.01226559,-0.99015397
1314365453.66456795,0.13916117,-0.01208304,-0.99019603
1314365453.70948601,0.13927193,-0.01210196,-0.99018022
1314365453.76552105,0.13915521,-0.01213927,-0.99019617
1314365453.81942463,0.13910541,-0.01210418,-0.99020360
1314365453.85744834,0.13872263,-0.01216832,-0.99025651
1314365453.91752720,0.13874975,-0.01180216,-0.99025715
1314365453.96472263,0.13887147,-0.01179207,-0.99024020
1314365454.01750803,0.13889535,-0.01198338,-0.99023456
1314365454.06469321,0.13903583,-0.01183437,-0.99021664
1314365454.11747932,0.13887388,-0.01174450,-0.99024043
1314365454.15761256,0.13865220,-0.01173557,-0.99027160
1314365454.20559120,0.13860039,-0.01195379,-0.99027624
1314365454.25746107,0.13847094,-0.01176085,-0.99029666
1314365454.30462575,0.13843520,-0.01200315,-0.99029875
1314365454.35668755,0.13834236,-0.01234596,-0.99030751
1314365454.40552163,0.13849194,-0.01229756,-0.99028721
1314365454.45655274,0.13868218,-0.01237550,-0.99025961
1314365454.51746535,0.13890122,-0.01243017,-0.99022823
1314365454.56468987,0.13888445,-0.01231491,-0.99023202
1314365454.61757922,0.13893730,-0.01251868,-0.99022205
1314365454.66967726,0.13877579,-0.01253435,-0.99024450
1314365454.70459151,0.13873109,-0.01279688,-0.99024741
1314365454.76566648,0.13872898,-0.01276078,-0.99024817
1314365454.81663513,0.13853522,-0.01263773,-0.99027687
1314365454.85753965,0.13848016,-0.01231459,-0.99028864
1314365454.91747952,0.13866273,-0.01189813,-0.99026819
1314365454.96457863,0.13861728,-0.01183959,-0.99027525
1314365455.01692557,0.13866264,-0.01170359,-0.99027052
1314365455.06548929,0.13841088,-0.01180223,-0.99030457
1314365455.11757135,0.13830430,-0.01176326,-0.99031992
1314365455.15662909,0.13820866,-0.01160390,-0.99033515
1314365455.21747518,0.13828316,-0.01169636,-0.99032367
1314365455.25665236,0.13860506,-0.01153344,-0.99028057
1314365455.30852866,0.13870083,-0.01148428,-0.99026774
1314365455.35763049,0.13860432,-0.01130542,-0.99028331
1314365455.40567136,0.13868984,-0.01123259,-0.99027216
1314365455.45746636,0.13875948,-0.01134822,-0.99026109
1314365455.51659179,0.13878182,-0.01116236,-0.99026007
1314365455.55754757,0.13863355,-0.01137526,-0.99027842
1314365455.61684275,0.13859972,-0.01148653,-0.99028187
1314365455.66460609,0.13876412,-0.01154045,-0.99025822
1314365455.70548844,0.13899243,-0.01176458,-0.99022356
1314365455.75652170,0.13910085,-0.01190303,-0.99020668
1314365455.81658816,0.13898587,-0.01169757,-0.99022527
1314365455.86587715,0.13890278,-0.01186043,-0.99023500
1314365455.91354084,0.13884636,-0.01175368,-0.99024418
1314365455.96564150,0.13885240,-0.01172572,-0.99024367
1314365456.01352215,0.13886477,-0.01142366,-0.99024546
1314365456.06561518,0.13871120,-0.01135990,-0.99026772
1314365456.11350965,0.13863665,-0.01116404,-0.99028039
1314365456.16559601,0.13847287,-0.01119649,-0.99030293
1314365456.21757531,0.13858900,-0.01112677,-0.99028748
1314365456.26545477,0.13855846,-0.01098799,-0.99029330
1314365456.30463004,0.13853690,-0.01077016,-0.99029871
1314365456.36460495,0.13870090,-0.01073885,-0.99027609
1314365456.41754436,0.13902617,-0.01059364,-0.99023204
1314365456.46456623,0.13915055,-0.01048812,-0.99021570
1314365456.51350117,0.13900370,-0.01011029,-0.99024025
1314365456.55653214,0.13897561,-0.01012890,-0.99024400
1314365456.61351609,0.13898317,-0.01017829,-0.99024244
1314365456.66549826,0.13919771,-0.01036229,-0.99021039
1314365456.71419430,0.13936946,-0.01024222,-0.99018748
1314365456.76458454,0.13936017,-0.01018698,-0.99018936
1314365456.82557416,0.13939974,-0.00991562,-0.99018655
1314365456.86569238,0.13922765,-0.00993444,-0.99021057
1314365456.91350865,0.13922800,-0.00992780,-0.99021059
1314365456.97653055,0.13909729,-0.00988840,-0.99022935
1314365457.00451231,0.13920916,-0.00981753,-0.99021433
1314365457.06553745,0.13916734,-0.00972443,-0.99022113
1314365457.11363769,0.13939586,-0.00981375,-0.99018811
1314365457.15663362,0.13923692,-0.00981732,-0.99021043
1314365457.21357179,0.13914144,-0.01011051,-0.99022090
1314365457.26463890,0.13938345,-0.01003283,-0.99018766
1314365457.31349015,0.13919003,-0.00970857,-0.99021810
1314365457.36462688,0.13961812,-0.00980419,-0.99015689
1314365457.40584588,0.13961976,-0.00970839,-0.99015760
1314365457.46552444,0.13950346,-0.00950874,-0.99017593
1314365457.51362276,0.13942292,-0.00960011,-0.99018639
1314365457.56462216,0.13963401,-0.00928256,-0.99015967
1314365457.61647248,0.13975390,-0.00929267,-0.99014266
1314365457.66056919,0.13970772,-0.00931517,-0.99014897
1314365457.70617104,0.13951431,-0.00915032,-0.99017778
1314365457.76463175,0.13971802,-0.00912535,-0.99014928
1314365457.81657362,0.13966776,-0.00898378,-0.99015767
1314365457.85745358,0.13942238,-0.00898296,-0.99019226
1314365457.91355467,0.13949827,-0.00899655,-0.99018145
1314365457.96458364,0.13946789,-0.00924237,-0.99018346
1314365458.01370811,0.13963970,-0.00933745,-0.99015835
1314365458.06460476,0.13985275,-0.00918420,-0.99012972
1314365458.11348748,0.13965961,-0.00926154,-0.99015626
1314365458.16550779,0.13985650,-0.00924815,-0.99012859
1314365458.21376348,0.14014090,-0.00931519,-0.99008775
1314365458.26547098,0.14051346,-0.00943678,-0.99003379
1314365458.31359768,0.14053637,-0.00925174,-0.99003229
1314365458.35759807,0.14078859,-0.00924899,-0.98999648
1314365458.41749883,0.14079151,-0.00925547,-0.98999600
1314365458.46546125,0.14096991,-0.00920259,-0.98997111
1314365458.51347256,0.14093872,-0.00934712,-0.98997420
1314365458.56546497,0.14110592,-0.00905759,-0.98995307
1314365458.61362362,0.14128226,-0.00915910,-0.98992698
1314365458.65750098,0.14134255,-0.00902721,-0.98991959
1314365458.70545316,0.14137681,-0.00887529,-0.98991607
1314365458.76544309,0.14152413,-0.00855786,-0.98989782
1314365458.81346941,0.14155743,-0.00861994,-0.98989251
1314365458.86544728,0.14155605,-0.00873665,-0.98989169
1314365458.91346741,0.14153792,-0.00867841,-0.98989479
1314365458.97738910,0.14140354,-0.00878509,-0.98991306
1314365459.01654506,0.14143817,-0.00877575,-0.98990819
1314365459.06547761,0.14169723,-0.00879321,-0.98987099
1314365459.11658216,0.14189174,-0.00877676,-0.98984327
1314365459.16453409,0.14199543,-0.00860634,-0.98982990
1314365459.21343398,0.14188820,-0.00870741,-0.98984439
1314365459.26817822,0.14206449,-0.00852388,-0.98982070
1314365459.31345773,0.14221821,-0.00863386,-0.98979767
1314365459.36544776,0.14230701,-0.00855263,-0.98978562
1314365459.41652465,0.14262559,-0.00858789,-0.98973946
1314365459.46948838,0.14274332,-0.00833411,-0.98972465
1314365459.51346922,0.14256478,-0.00820301,-0.98975148
1314365459.56553340,0.14285357,-0.00823031,-0.98970961
1314365459.61345863,0.14276959,-0.00806313,-0.98972311
